OBJECT G, 44885

Orbit data source: Space-Track

You're viewing an Uncataloged Satellite

Recently launched and/or uncataloged satellites may have evolving metadata. Metadata may include but not limited to: Owner, Maufacturer, Bus, Motor, and Mission.

OBJECT G, 44885 is a satellite in SSO that was launched on Fri, 20 Dec 2019 UTC via a CHANG ZHENG 4B launch vehicle from the Taiyaun Space Center, China (TSC). Unknown objects in Earth's orbit typically refer to objects detected orbiting the Earth but have not yet been identified or cataloged. These objects could be anything from previously untracked satellites, spent rocket stages, debris from satellite collisions, or even natural meteoroids temporarily captured by Earth's gravity.

Loading next visibility...
Identifier
44885, 2019-093G
Orbit
SSO
Country
Flag of TBDTBD
Related business
Flag of BRFederal University of Santa Catarina (BR)
Manufacturer
UFSC
Mission
Operational Amateur Technology
Bus & Motor
CUBESAT 1U, Unknown motor
Mass
1 kg wet, 1 kg dry
Launch date (UTC)
2019-12-20 (6 years ago)
Launch vehicle
CHANG ZHENG 4B
Launch site
Taiyaun Space Center, China (TSC)
Object type
Unknown
Shape & HBR
Box, Unknown HBR
Radar Cross Section
0.015 m², Small (<0.1 m²)

Expand to show TLE details & history
Last TLE update: 6 hours ago

TLE from 6 hours ago
0 OBJECT G
1 44885U 19093G   26104.80144440  .00003078  00000-0  23191-3 0  9996
2 44885  97.7892 198.6122 0010921 283.5246  76.4762 15.03206308343128
Epoch: 2026-04-14T19:14Z
TLE epoch observation values (Epoch: 2026-04-14T19:14:04.796Z)
Latitude
Longitude
67.11974°
Altitude
558.31 km
Speed
7.583 km/s
True Right ascension
13h 14m 26s
True Declination
0° 00' 00"
Sunlit
Object was in full shadow at epoch
Visualization orbit readout
Latitude
Unknown
Longitude
Unknown
Altitude
Unknown
Speed
Unknown
Apparent Right ascension
Unknown
Apparent Declination
Unknown
Sunlit
N/A
Visualization observer readout
Local Sidereal Time
08:07:56
Azimuth
Unknown
Elevation
Unknown
Doppler factor
Unknown
Orbital elements
Apogee altitude
561.593 km
Perigee altitude
546.451 km
Semi-major axis
6,932.159 km
Eccentricity
0.00109
Inclination
97.7892°
RAAN
198.6122°
Arg. of periapsis
283.5246°
True anomaly
76.59791°
Mean anomaly
76.4762°
Eccentric anomaly
76.53705°
Mean motion
3.76045 °/min
Orbital period
95.73 mins
BSTAR
0.00023191
Loading maneuver chart data...
Computing Atmospheric mass density...
Loading historical data...
Loading historical data...
Loading historical data...
Loading historical data...
Loading historical data...
Loading historical data...
Loading historical data...

Documentation

Showing up to 5 results
|